G6SGA Weather Reports


time (UTC)temp
C
wind
direction
speed
KPH
gust
KPH
rain 1hr
cm
rain 24hr
cm
rain mn
cm
humidity
%
barometer
mb
20260502221003 10 6 1.6 6.4 0.23 0.48 0.48 98 1028.2
20260502220710 10 5 1.6 6.4 0.23 0.48 0.46 98 1028.2
20260502220004 10 14 3.2 8.0 0.23 0.43 0.43 98 1028.2
20260502215503 10 8 3.2 8.0 0.20 0.43 0.41 97 1028.2
20260502215003 10 14 3.2 8.0 0.20 0.41 0.41 97 1028.2
20260502214503 10 18 4.8 8.0 0.18 0.38 0.38 97 1028.2
20260502214003 11 16 3.2 8.0 0.18 0.36 0.36 97 1028.2
20260502213503 11 12 3.2 9.7 0.15 0.33 0.33 97 1028.2
20260502213003 11 10 3.2 9.7 0.15 0.33 0.33 96 1028.2
20260502212503 11 11 3.2 6.4 0.15 0.30 0.30 96 1028.2
20260502212210 11 9 3.2 6.4 0.15 0.30 0.30 96 1028.2
20260502211503 11 9 1.6 4.8 0.15 0.28 0.28 95 1028.2
20260502211003 11 349 3.2 8.0 0.13 0.25 0.25 94 1028.2
20260502210503 11 346 3.2 8.0 0.15 0.23 0.23 94 1028.2
20260502210004 11 346 3.2 4.8 0.13 0.23 0.23 94 1028.2
20260502205710 11 347 3.2 4.8 0.13 0.23 0.23 93 1028.2
20260502205211 11 351 3.2 4.8 0.13 0.20 0.20 93 1028.2
20260502204503 11 347 1.6 6.4 0.13 0.18 0.20 92 1028.2
20260502204003 11 341 3.2 6.4 0.13 0.18 0.18 91 1028.2
20260502203503 11 337 1.6 6.4 0.13 0.18 0.18 90 1028.2
20260502203003 11 328 3.2 6.4 0.15 0.18 0.18 90 1028.2
20260502202711 11 332 3.2 6.4 0.15 0.15 0.15 90 1028.2
20260502202211 11 338 3.2 6.4 0.13 0.15 0.15 89 1028.2
20260502201504 12 341 3.2 4.8 0.13 0.13 0.13 87 1028.2
20260502201003 12 346 1.6 4.8 0.10 0.13 0.13 87 1028.2
20260502200711 12 342 1.6 4.8 0.10 0.10 0.10 86 1028.2
20260502200004 12 337 1.6 4.8 0.08 0.10 0.08 85 1028.2
20260502195503 12 344 3.2 6.4 0.08 0.08 0.08 84 1028.2
20260502195003 12 348 3.2 8.0 0.08 0.08 0.08 84 1028.2
20260502194503 12 349 3.2 8.0 0.05 0.05 0.05 83 1028.2
20260502194003 12 351 3.2 4.8 0.05 0.05 0.05 84 1028.2
20260502193503 12 352 3.2 4.8 0.05 0.05 0.05 83 1028.2
20260502193003 12 353 3.2 4.8 0.03 0.03 0.03 81 1028.2
20260502192503 12 349 1.6 4.8 0.03 0.03 0.03 80 1028.2
20260502192003 13 338 1.6 4.8 0.03 0.03 0.03 81 1028.2
20260502191504 13 336 1.6 4.8 0.00 0.00 0.03 81 1028.2
20260502191003 13 335 1.6 4.8 0.00 0.00 0.00 81 1028.2
20260502190503 13 343 1.6 4.8 0.00 0.00 0.00 79 1028.2
20260502190004 13 349 1.6 4.8 0.00 0.00 0.00 78 1028.2
20260502185503 13 350 1.6 4.8 0.00 0.00 0.00 78 1028.2
20260502185003 13 345 1.6 4.8 0.00 0.00 0.00 76 1028.2
20260502184504 13 322 1.6 3.2 0.00 0.00 0.00 75 1028.2
20260502184003 13 323 1.6 3.2 0.00 0.00 0.00 74 1028.2
20260502183504 13 324 1.6 4.8 0.00 0.00 0.00 74 1028.2
20260502183003 13 321 1.6 4.8 0.00 0.00 0.00 75 1028.2
20260502182503 13 314 1.6 4.8 0.00 0.00 0.00 76 1028.2
20260502182003 13 320 1.6 4.8 0.00 0.00 0.00 75 1028.2
20260502181504 13 310 1.6 4.8 0.00 0.00 0.00 74 1028.2
20260502181003 13 302 1.6 4.8 0.00 0.00 0.00 74 1028.2
20260502180503 14 296 1.6 4.8 0.00 0.00 0.00 74 1028.2
20260502164003 16 311 1.6 4.8 0.00 0.00 0.00 61 1028.2
20260502163711 16 316 1.6 4.8 0.00 0.00 0.00 62 1028.2
20260502163003 16 309 1.6 4.8 0.00 0.00 0.00 61 1028.2
20260502162503 16 330 1.6 6.4 0.00 0.00 0.00 61 1028.2
20260502162003 16 346 3.2 6.4 0.00 0.00 0.00 59 1028.2
20260502161503 16 345 3.2 6.4 0.00 0.00 0.00 59 1028.2
20260502161003 16 357 3.2 8.0 0.00 0.00 0.00 60 1028.2
20260502160503 16 21 3.2 8.0 0.00 0.00 0.00 59 1028.2
20260502160211 16 14 1.6 8.0 0.00 0.00 0.00 59 1028.2
20260502152210 16 267 1.6 6.4 0.00 0.00 0.00 55 1028.2
20260502151503 17 298 1.6 8.0 0.00 0.00 0.00 56 1028.2
20260502151211 17 309 1.6 8.0 0.00 0.00 0.00 57 1028.2
20260502150503 17 293 3.2 9.7 0.00 0.00 0.00 53 1028.2
20260502130711 17 241 3.2 8.0 0.00 0.00 0.00 59 1028.2
20260502123711 16 285 4.8 11.3 0.00 0.00 0.00 59 1028.2
20260502123003 16 315 4.8 11.3 0.00 0.00 0.00 62 1028.2
20260502122710 16 307 4.8 11.3 0.00 0.00 0.00 61 1028.2
20260502122003 16 262 3.2 11.3 0.00 0.00 0.00 63 1028.2
20260502121503 16 249 3.2 9.7 0.00 0.00 0.00 63 1028.2
20260502121003 16 206 3.2 9.7 0.00 0.00 0.00 62 1028.2
20260502120711 15 203 3.2 6.4 0.00 0.00 0.00 64 1028.2
20260502115503 15 262 3.2 8.0 0.00 0.00 0.00 65 1028.2
20260502115003 15 272 3.2 6.4 0.00 0.00 0.00 65 1028.2
20260502114503 15 282 3.2 9.7 0.00 0.00 0.00 65 1028.2
20260502114003 15 274 3.2 9.7 0.00 0.00 0.00 66 1028.2
20260502113504 15 267 3.2 9.7 0.00 0.00 0.00 66 1028.2
20260502113004 15 240 3.2 9.7 0.00 0.00 0.00 67 1028.2
20260502112503 15 195 3.2 9.7 0.00 0.00 0.00 67 1028.2
20260502112003 14 138 3.2 9.7 0.00 0.00 0.00 68 1028.2
20260502111503 15 148 3.2 9.7 0.00 0.00 0.00 68 1028.2
20260502111003 15 230 3.2 8.0 0.00 0.00 0.00 67 1028.2
20260502110503 15 270 3.2 8.0 0.00 0.00 0.00 67 1028.2
20260502110004 14 269 3.2 8.0 0.00 0.00 0.00 70 1028.2
20260502105710 14 274 3.2 11.3 0.00 0.00 0.00 70 1028.2
20260502105003 13 280 4.8 11.3 0.00 0.00 0.00 73 1028.2
20260502104503 13 268 3.2 11.3 0.00 0.00 0.00 74 1028.2
20260502104210 13 273 3.2 9.7 0.00 0.00 0.00 73 1028.2
20260502103503 13 276 4.8 12.9 0.00 0.00 0.00 73 1028.2
20260502103211 13 262 4.8 12.9 0.00 0.00 0.00 74 1028.2
20260502102503 13 223 3.2 11.3 0.00 0.00 0.00 72 1028.2
20260502101503 13 272 3.2 9.7 0.00 0.00 0.00 74 1028.2
20260502101003 13 281 3.2 9.7 0.00 0.00 0.00 75 1028.2
20260502100503 13 265 3.2 9.7 0.00 0.00 0.00 74 1028.2
20260502091503 12 260 3.2 8.0 0.00 0.00 0.00 82 1028.2
20260502091003 12 266 3.2 6.4 0.00 0.00 0.00 82 1028.2
20260502090710 12 273 3.2 6.4 0.00 0.00 0.00 81 1028.2
20260502071003 9 233 3.2 8.0 0.00 0.00 0.00 96 1028.2
20260502070503 8 234 1.6 6.4 0.00 0.00 0.00 97 1028.2
20260502070004 8 238 1.6 6.4 0.00 0.00 0.00 97 1028.2
20260502065503 8 242 1.6 4.8 0.00 0.00 0.00 97 1028.2
20260502065003 8 242 1.6 3.2 0.00 0.00 0.00 97 1028.2
20260502064504 8 242 1.6 3.2 0.00 0.00 0.00 97 1028.2
20260502064003 8 231 1.6 3.2 0.00 0.00 0.00 97 1028.2
20260502063503 8 227 1.6 3.2 0.00 0.00 0.00 97 1028.2
20260502063003 8 243 1.6 3.2 0.00 0.00 0.00 98 1028.2
20260502062503 8 249 1.6 3.2 0.00 0.00 0.00 98 1028.2
20260502062003 8 235 1.6 3.2 0.00 0.00 0.00 98 1028.2
20260502061503 8 230 1.6 3.2 0.00 0.00 0.00 98 1028.2
20260502061003 8 207 1.6 4.8 0.00 0.00 0.00 98 1028.2
20260502060711 8 204 1.6 4.8 0.00 0.00 0.00 98 1028.2
20260502060004 8 221 1.6 3.2 0.00 0.00 0.00 97 1028.2
20260502055503 8 227 0.0 3.2 0.00 0.00 0.00 97 1028.2
20260502055003 8 231 0.0 3.2 0.00 0.00 0.00 97 1028.2
20260502054503 8 249 0.0 3.2 0.00 0.00 0.00 98 1028.2
20260502054212 8 244 0.0 3.2 0.00 0.00 0.00 98 1028.2
20260502053711 7 249 0.0 3.2 0.00 0.00 0.00 98 1028.2
20260502053004 7 233 1.6 3.2 0.00 0.00 0.00 99 1028.2
20260502052503 7 233 1.6 3.2 0.00 0.00 0.00 99 1028.2
20260502052013 7 233 1.6 3.2 0.00 0.00 0.00 98 1028.2
20260502051504 7 232 1.6 3.2 0.00 0.00 0.00 98 1028.2
20260502051003 7 235 1.6 4.8 0.00 0.00 0.00 99 1028.2
20260502050504 7 235 1.6 4.8 0.00 0.00 0.00 99 1028.2
20260502050004 7 236 1.6 4.8 0.00 0.00 0.00 99 1028.2
20260502045504 7 241 1.6 4.8 0.00 0.00 0.00 99 1028.2
20260502045004 7 242 1.6 4.8 0.00 0.00 0.00 99 1028.2
20260502044711 7 240 1.6 4.8 0.00 0.00 0.00 99 1028.2
20260502044003 7 240 1.6 4.8 0.00 0.00 0.00 99 1028.2
20260502043504 7 251 1.6 4.8 0.00 0.00 0.00 99 1028.2
20260502043210 7 250 1.6 4.8 0.00 0.00 0.00 99 1028.2
20260502042503 7 249 1.6 4.8 0.00 0.00 0.00 99 1028.2
20260502042003 7 244 1.6 3.2 0.00 0.00 0.00 99 1028.2
20260502041503 7 244 1.6 4.8 0.00 0.00 0.00 99 1028.2
20260502041211 7 239 1.6 4.8 0.00 0.00 0.00 99 1028.2
20260502040503 7 236 1.6 4.8 0.00 0.00 0.00 99 1028.2
20260502040004 7 243 1.6 4.8 0.00 0.00 0.00 99 1028.2
20260502035503 7 242 1.6 6.4 0.00 0.00 0.00 99 1028.2
20260502035003 7 232 1.6 6.4 0.00 0.00 0.00 99 1028.2
20260502034503 7 234 3.2 6.4 0.00 0.00 0.00 99 1028.2
20260502034003 7 238 3.2 6.4 0.00 0.00 0.00 99 1028.2
20260502033504 7 239 1.6 4.8 0.00 0.00 0.00 99 1028.2
20260502032503 7 240 1.6 4.8 0.00 0.00 0.00 99 1028.2
20260502032003 7 242 3.2 4.8 0.00 0.00 0.00 99 1028.2
20260502031503 7 239 3.2 4.8 0.00 0.00 0.00 99 1028.2
20260502031003 7 228 3.2 6.4 0.00 0.00 0.00 99 1028.2
20260502030503 7 226 3.2 6.4 0.00 0.00 0.00 99 1028.2
20260502030014 7 229 3.2 4.8 0.00 0.00 0.00 99 1028.2
20260502025003 7 240 1.6 4.8 0.00 0.00 0.00 99 1028.2
20260502024503 7 248 1.6 4.8 0.00 0.00 0.00 99 1028.2
20260502024003 7 244 1.6 4.8 0.00 0.00 0.00 99 1028.2
20260502023503 7 239 3.2 4.8 0.00 0.00 0.00 99 1028.2
20260502023003 7 239 3.2 6.4 0.00 0.00 0.00 99 1028.2
20260502022503 7 247 3.2 6.4 0.00 0.00 0.00 99 1028.2
20260502022003 7 255 3.2 6.4 0.00 0.00 0.00 99 1028.2
20260502021504 7 262 3.2 6.4 0.00 0.00 0.00 99 1028.2
20260502021003 7 254 3.2 6.4 0.00 0.00 0.00 99 1028.2
20260502020503 7 240 3.2 8.0 0.00 0.00 0.00 99 1028.2
20260502020004 7 235 3.2 8.0 0.00 0.00 0.00 99 1028.2
20260502015503 7 237 3.2 6.4 0.00 0.00 0.00 99 1028.2
20260502015211 8 244 3.2 6.4 0.00 0.00 0.00 99 1028.2
20260502014503 8 241 3.2 6.4 0.00 0.00 0.00 99 1028.2
20260502014004 8 246 3.2 6.4 0.00 0.00 0.00 99 1028.2
20260502013503 8 257 1.6 4.8 0.00 0.00 0.00 99 1028.2
20260502013003 8 245 3.2 6.4 0.00 0.00 0.00 99 1028.2
20260502012503 8 242 3.2 8.0 0.00 0.00 0.00 99 1028.2
20260502012004 8 243 3.2 8.0 0.00 0.00 0.00 99 1028.2
20260502011004 8 232 3.2 9.7 0.00 0.00 0.00 99 1028.2
20260502010503 8 236 3.2 9.7 0.00 0.00 0.00 99 1028.2
20260502010004 8 243 4.8 11.3 0.00 0.00 0.00 99 1028.2
20260502005504 8 244 4.8 11.3 0.00 0.00 0.00 99 1028.2
20260502005004 8 248 4.8 9.7 0.00 0.00 0.00 99 1028.2
20260502004004 9 243 4.8 11.3 0.00 0.00 0.00 99 1028.2
20260502003013 10 243 3.2 11.3 0.00 0.00 0.00 99 1028.2
20260502002513 10 253 3.2 8.0 0.00 0.00 0.00 99 1028.2
20260502002004 10 253 3.2 8.0 0.00 0.00 0.00 99 1028.2
20260502001503 10 257 1.6 6.4 0.00 0.00 0.00 99 1028.2
20260502001004 10 258 1.6 4.8 0.00 0.00 0.00 99 1028.2
20260502000503 10 269 1.6 4.8 0.00 0.00 0.00 99 1028.2
20260502000004 10 276 1.6 4.8 0.00 0.00 0.00 99 1028.2
20260501234004 10 289 1.6 4.8 0.00 0.00 0.00 99 1028.2
20260501233504 10 290 1.6 6.4 0.00 0.00 0.00 99 1028.2
20260501233003 10 280 1.6 6.4 0.00 0.00 0.00 99 1028.2
20260501232503 10 282 1.6 4.8 0.00 0.00 0.00 99 1028.2
20260501232211 11 291 1.6 3.2 0.00 0.00 0.00 99 1028.2
20260501231504 11 291 1.6 4.8 0.00 0.00 0.00 99 1028.2
20260501231211 11 291 1.6 4.8 0.00 0.00 0.00 99 1028.2
20260501230503 11 299 1.6 4.8 0.00 0.00 0.00 99 1028.2
20260501230005 11 301 1.6 6.4 0.00 0.00 0.00 99 1028.2
20260501225503 11 296 1.6 6.4 0.00 0.00 0.03 99 1028.2
20260501225004 11 297 1.6 4.8 0.00 0.00 0.03 99 1028.2
20260501224503 11 301 1.6 4.8 0.00 0.00 0.03 99 1028.2
20260501224210 11 304 1.6 6.4 0.00 0.00 0.03 99 1028.2
20260501223503 11 304 3.2 6.4 0.00 0.00 0.03 99 1028.2
20260501223003 11 307 3.2 6.4 0.00 0.00 0.03 99 1028.2
20260501222711 11 299 3.2 8.0 0.00 0.00 0.03 99 1028.2
20260501222003 11 288 3.2 8.0 0.00 0.00 0.03 99 1028.2